Location: B?dimalle
(17.1788°N, 80.5377°E)
Time: 09:53:43
(UTC+00:00)

Tiros 1 despin weight - Pass Details

Date: 17 February 2026
Orbit: 556 x 593 km, 48.2° (Epoch: 10 March)

Event Time Altitude Azimuth Distance (km) Brightness Sun altitude
Rises 08:50:53 0° 252° (WSW) 2,749 ? 48.6°
Reaches altitude 10° 08:53:39 10° 270° (W) 1,847 ? 48.1°
Maximum altitude 08:56:43 19° 317° (NW) 1,337 ? 47.6°
Drops below altitude 10° 08:59:48 10° 5° (N) 1,835 ? 47.0°
Sets 09:02:32 0° 23° (NNE) 2,726 ? 46.5°
